Simultaneous Nadir Overpasses (SNOs) Predictions

Prediction of SNOs between LANDSAT-8 and METOP-B Satellite Orbit:

Table of predicted SNOs for the next 14.0 days since TLE Epoch: 9/21/2024
Index Date (LANDSAT-8) Time (LANDSAT-8) Lat,Lon (LANDSAT-8) SZA (LANDSAT-8 ) Date (METOP-B) Time (METOP-B) Lat,Lon (METOP-B) SZA (METOP-B ) Distance(km) Time Diff (sec)
1 09/22/2024 01:07:56 81.40,-152.18 83.89 09/22/2024 01:07:13 81.39,-152.26 83.86 1.42 43
2 09/22/2024 01:57:23 -81.39, 15.38 96.12 09/22/2024 01:57:53 -81.40, 15.33 96.11 0.96 30
3 09/24/2024 20:42:08 81.40, -85.67 85.01 09/24/2024 20:41:30 81.40, -85.65 84.99 0.56 38
4 09/24/2024 21:31:35 -81.40, 81.90 94.99 09/24/2024 21:32:10 -81.40, 81.96 94.96 1.06 35
5 09/27/2024 16:16:20 81.40, -19.21 86.13 09/27/2024 16:15:48 81.40, -19.19 86.12 0.50 32
6 09/27/2024 17:05:47 -81.40, 148.38 93.87 09/27/2024 17:06:28 -81.40, 148.45 93.84 1.11 41
7 09/30/2024 11:50:31 81.40, 47.22 87.24 09/30/2024 11:50:06 81.40, 47.13 87.21 1.53 25
8 09/30/2024 12:39:58 -81.40,-145.17 92.76 09/30/2024 12:40:46 -81.40,-145.21 92.74 0.75 48
9 10/03/2024 07:24:40 81.39, 113.60 88.33 10/03/2024 07:24:22 81.40, 113.69 88.34 1.43 18



Historial Predications of SNOs between LANDSAT-8 and METOP-B
